�N����,����,�~����,�C��,���x,�C��,����,���ϕ���,�ő�u�ԕ���,�ő厞����,���˗�,�I�_���x,�n�����x,�ő啗���N��,DTYPE
"20/12/04","00:10",0.0,6.3,87.2,1016.4,315.0,1.6,3.7,312.7,0.00,4.4,10.3,"00:00:08",1
"20/12/04","00:20",0.0,6.3,87.6,1016.6,284.8,1.7,2.4,305.4,0.00,4.4,10.3,"00:18:48",1
"20/12/04","00:30",0.0,7.1,87.3,1016.6,319.0,3.4,6.4,330.2,0.00,5.2,10.1,"00:25:52",1
"20/12/04","00:40",0.0,7.7,85.6,1016.6,309.1,3.7,7.4,325.3,0.00,5.5,10.4,"00:32:56",1
"20/12/04","00:50",0.0,7.7,84.0,1016.8,300.0,2.6,4.7,324.8,0.00,5.2,10.2,"00:49:52",1
"20/12/04","01:00",0.0,7.6,82.8,1017.3,313.4,3.1,4.8,314.1,0.00,4.9,10.2,"00:54:40",1
"20/12/04","01:10",0.0,7.6,82.1,1017.1,303.9,3.0,4.9,309.3,0.00,4.8,10.3,"01:09:20",1
"20/12/04","01:20",0.0,7.5,81.9,1017.1,290.5,2.8,4.4,310.2,0.00,4.7,10.0,"01:15:36",1
"20/12/04","01:30",0.0,7.3,82.0,1017.1,298.9,2.8,4.2,316.2,0.00,4.5,10.1,"01:24:32",1
"20/12/04","01:40",0.0,7.2,82.3,1016.4,307.4,3.0,5.4,335.9,0.00,4.4,9.8,"01:36:16",1
"20/12/04","01:50",0.0,7.4,82.6,1016.8,317.6,4.1,6.7,339.3,0.00,4.7,9.9,"01:48:56",1
"20/12/04","02:00",0.0,7.4,82.3,1016.8,315.6,3.9,6.0,310.3,0.00,4.6,9.9,"01:57:28",1
"20/12/04","02:10",0.0,7.4,82.1,1016.6,317.5,4.2,6.5,311.8,0.00,4.6,9.9,"02:02:48",1
"20/12/04","02:20",0.0,7.4,82.1,1016.6,319.2,5.2,8.5,322.9,0.00,4.6,10.0,"02:18:48",1
"20/12/04","02:30",0.0,7.3,82.3,1016.6,326.5,5.6,7.9,329.3,0.00,4.5,10.1,"02:23:30",1
"20/12/04","02:40",0.0,7.2,82.5,1016.8,324.1,4.9,7.1,334.2,0.00,4.5,9.8,"02:36:08",1
"20/12/04","02:50",0.0,7.4,82.0,1016.8,323.0,5.2,7.5,336.7,0.00,4.6,9.9,"02:49:12",1
"20/12/04","03:00",0.0,7.4,81.6,1016.6,324.3,4.6,7.0,327.3,0.00,4.5,10.0,"02:50:40",1
"20/12/04","03:10",0.0,7.4,81.4,1016.4,316.1,4.6,6.3,323.2,0.00,4.5,10.0,"03:01:28",1
"20/12/04","03:20",0.0,7.3,81.4,1016.4,317.1,4.1,7.2,313.6,0.00,4.4,9.9,"03:12:40",1
"20/12/04","03:30",0.0,7.3,81.6,1016.1,319.6,4.4,7.3,319.9,0.00,4.4,10.0,"03:29:28",1
"20/12/04","03:40",0.0,7.5,81.1,1016.6,307.2,3.9,7.5,315.1,0.00,4.5,9.7,"03:30:24",1
"20/12/04","03:50",0.0,7.3,81.1,1016.6,318.1,4.2,6.7,317.8,0.00,4.3,9.7,"03:45:44",1
"20/12/04","04:00",0.0,7.2,81.7,1016.4,317.7,4.2,7.0,336.4,0.00,4.3,9.7,"03:58:24",1
"20/12/04","04:10",0.0,7.2,82.1,1016.1,325.7,5.7,7.8,346.3,0.00,4.4,9.7,"04:02:32",1
"20/12/04","04:20",0.0,7.2,82.2,1015.6,325.1,5.5,7.7,332.8,0.00,4.4,9.9,"04:13:12",1
"20/12/04","04:30",0.0,7.3,82.2,1016.4,327.1,5.2,7.5,300.8,0.00,4.5,9.6,"04:27:44",1
"20/12/04","04:40",0.0,7.3,82.0,1016.4,328.4,4.6,7.0,344.2,0.00,4.5,9.6,"04:34:42",1
"20/12/04","04:50",0.0,7.2,82.2,1016.8,324.8,3.6,7.0,313.1,0.00,4.4,9.6,"04:40:08",1
"20/12/04","05:00",0.0,7.1,82.7,1016.8,320.7,3.9,5.0,319.5,0.00,4.4,9.8,"04:52:32",1
"20/12/04","05:10",0.0,6.8,83.3,1016.8,324.3,3.4,4.9,331.9,0.00,4.2,9.8,"05:01:04",1
"20/12/04","05:20",0.0,6.3,83.7,1017.1,314.9,2.0,3.3,324.8,0.00,3.8,9.6,"05:11:04",1
"20/12/04","05:30",0.0,5.7,84.3,1017.1,304.4,1.3,2.7,328.5,0.00,3.3,9.4,"05:24:16",1
"20/12/04","05:40",0.0,5.1,85.0,1017.1,325.4,1.8,2.8,324.9,0.00,2.8,9.3,"05:32:56",1
"20/12/04","05:50",0.0,4.6,85.6,1017.3,313.3,1.7,2.7,323.3,0.00,2.4,9.2,"05:42:56",1
"20/12/04","06:00",0.0,4.3,86.3,1017.5,289.0,1.5,2.0,296.3,0.00,2.3,9.5,"05:58:48",1
"20/12/04","06:10",0.0,4.7,87.2,1016.8,294.8,2.2,3.5,309.4,0.00,2.8,9.1,"06:07:36",1
"20/12/04","06:20",0.0,4.9,88.0,1017.3,324.7,2.7,3.7,322.0,0.00,3.1,9.2,"06:12:32",1
"20/12/04","06:30",0.0,5.3,88.8,1017.5,327.1,4.5,5.6,323.6,0.00,3.6,9.1,"06:27:04",1
"20/12/04","06:40",0.0,5.5,89.2,1017.8,316.8,4.2,5.8,325.8,0.00,3.9,9.2,"06:31:36",1
"20/12/04","06:50",0.0,5.8,89.5,1017.8,321.4,4.7,7.1,317.4,0.00,4.2,9.4,"06:45:44",1
"20/12/04","07:00",0.0,6.1,89.5,1017.8,326.3,4.6,6.6,324.1,0.00,4.5,9.3,"06:56:32",1
"20/12/04","07:10",0.0,6.2,89.5,1018.2,318.5,4.4,6.4,332.3,0.00,4.6,9.3,"07:00:02",1
"20/12/04","07:20",0.0,6.4,89.1,1018.2,313.8,4.2,5.7,324.0,0.00,4.8,9.2,"07:12:08",1
"20/12/04","07:30",0.0,6.6,88.5,1018.5,325.0,4.1,5.9,313.4,0.00,4.9,9.3,"07:28:56",1
"20/12/04","07:40",0.0,7.2,87.5,1018.5,326.1,4.6,7.4,336.8,0.00,5.3,9.2,"07:32:00",1
"20/12/04","07:50",0.0,7.6,85.9,1018.5,325.3,4.0,7.9,323.4,0.00,5.4,8.9,"07:40:02",1
"20/12/04","08:00",0.0,8.1,83.9,1018.2,333.4,3.9,8.3,323.3,0.02,5.6,9.5,"07:50:08",1
"20/12/04","08:10",0.0,8.5,81.6,1018.7,346.6,2.2,6.2,334.1,0.03,5.6,9.4,"08:03:44",1
"20/12/04","08:20",0.0,8.8,79.5,1019.2,93.7,0.8,1.8,113.8,0.05,5.5,9.4,"08:12:16",1
"20/12/04","08:30",0.0,9.3,77.3,1019.0,197.2,0.5,1.3,84.0,0.07,5.6,9.5,"08:20:24",1
"20/12/04","08:40",0.0,9.5,74.4,1019.2,208.6,0.8,2.9,115.8,0.10,5.2,9.6,"08:38:56",1
"20/12/04","08:50",0.0,9.8,72.4,1019.4,237.8,1.0,1.8,221.1,0.13,5.1,9.9,"08:45:52",1
"20/12/04","09:00",0.0,10.5,70.6,1019.7,282.6,0.8,1.7,167.1,0.15,5.4,10.0,"08:50:16",1
"20/12/04","09:10",0.0,10.8,68.2,1019.7,301.9,1.0,2.1,94.9,0.17,5.2,10.2,"09:05:04",1
"20/12/04","09:20",0.0,11.1,67.4,1019.4,291.4,1.2,2.5,333.4,0.20,5.3,10.1,"09:18:00",1
"20/12/04","09:30",0.0,11.1,65.9,1019.7,324.8,1.7,3.3,338.2,0.22,5.0,10.4,"09:23:28",1
"20/12/04","09:40",0.0,11.6,65.0,1019.4,313.0,0.6,1.4,341.0,0.25,5.3,10.6,"09:35:52",1
"20/12/04","09:50",0.0,12.0,63.8,1019.4,342.1,1.2,2.7,321.9,0.28,5.4,10.9,"09:48:32",1
"20/12/04","10:00",0.0,11.7,61.8,1019.4,338.5,2.2,4.1,339.7,0.29,4.7,11.0,"09:50:02",1
"20/12/04","10:10",0.0,12.0,60.8,1019.7,334.6,2.1,5.8,332.7,0.32,4.7,11.2,"10:09:20",1
"20/12/04","10:20",0.0,12.0,60.2,1019.2,353.9,2.2,6.4,325.3,0.33,4.6,11.4,"10:13:04",1
"20/12/04","10:30",0.0,12.3,58.6,1019.2,342.0,2.3,5.8,322.6,0.36,4.5,11.4,"10:20:02",1
"20/12/04","10:40",0.0,12.3,57.2,1019.2,350.5,2.5,6.2,343.7,0.37,4.1,11.7,"10:30:32",1
"20/12/04","10:50",0.0,12.5,56.7,1019.2,337.0,2.3,4.4,333.4,0.38,4.2,11.7,"10:46:08",1
"20/12/04","11:00",0.0,12.9,55.8,1018.5,346.3,1.6,4.1,336.2,0.39,4.3,11.7,"10:52:56",1
"20/12/04","11:10",0.0,13.3,54.6,1018.7,338.6,1.6,3.3,337.4,0.41,4.4,12.2,"11:03:36",1
"20/12/04","11:20",0.0,13.4,52.7,1018.5,350.7,1.7,3.3,344.5,0.41,4.0,12.3,"11:13:20",1
"20/12/04","11:30",0.0,13.5,50.9,1018.2,354.8,1.8,4.3,336.0,0.41,3.6,12.4,"11:23:04",1
"20/12/04","11:40",0.0,13.5,49.4,1018.2,14.3,2.0,4.9,37.8,0.42,3.2,12.7,"11:31:20",1
"20/12/04","11:50",0.0,13.8,49.4,1017.8,22.4,1.6,4.4,345.4,0.42,3.4,12.6,"11:40:24",1
"20/12/04","12:00",0.0,13.9,48.2,1018.2,8.2,1.2,2.9,297.9,0.37,3.2,12.8,"11:59:52",1
"20/12/04","12:10",0.0,13.3,48.3,1018.0,332.1,2.2,7.0,357.0,0.32,2.7,13.0,"12:01:04",1
"20/12/04","12:20",0.0,14.1,49.7,1017.5,287.0,1.3,3.1,310.5,0.43,3.8,13.2,"12:14:24",1
"20/12/04","12:30",0.0,14.6,48.8,1017.5,293.0,1.0,2.4,133.3,0.46,4.0,13.4,"12:22:08",1
"20/12/04","12:40",0.0,14.4,47.9,1017.5,225.4,1.3,2.6,226.2,0.43,3.5,13.7,"12:31:28",1
"20/12/04","12:50",0.0,14.6,45.8,1017.8,287.1,1.1,2.2,329.6,0.41,3.1,13.8,"12:47:28",1
"20/12/04","13:00",0.0,14.1,45.6,1017.3,319.7,2.8,4.9,334.5,0.40,2.6,13.7,"12:54:32",1
"20/12/04","13:10",0.0,14.2,45.0,1017.3,308.7,1.7,3.6,335.7,0.39,2.5,13.9,"13:05:44",1
"20/12/04","13:20",0.0,14.8,45.0,1017.3,268.0,1.3,2.9,290.5,0.37,3.0,14.2,"13:11:36",1
"20/12/04","13:30",0.0,15.0,44.5,1017.3,317.7,2.1,4.4,329.1,0.35,3.1,14.3,"13:24:24",1
"20/12/04","13:40",0.0,14.5,43.1,1017.3,335.4,2.0,4.0,343.3,0.28,2.2,14.3,"13:38:56",1
"20/12/04","13:50",0.0,14.0,44.5,1017.1,347.0,1.7,3.6,353.8,0.21,2.1,14.0,"13:45:04",1
"20/12/04","14:00",0.0,14.1,45.3,1017.1,275.4,1.2,4.0,330.9,0.17,2.5,14.0,"13:52:16",1
"20/12/04","14:10",0.0,14.7,45.8,1017.3,314.4,1.5,2.9,333.5,0.28,3.2,14.1,"14:06:32",1
"20/12/04","14:20",0.0,13.8,50.5,1017.1,336.1,2.6,5.2,332.8,0.12,3.7,14.1,"14:19:52",1
"20/12/04","14:30",0.0,13.7,52.2,1017.1,336.8,3.4,5.9,338.0,0.26,4.1,14.0,"14:28:16",1
"20/12/04","14:40",0.0,13.0,52.3,1017.3,333.1,3.2,6.0,340.0,0.09,3.5,13.9,"14:34:24",1
"20/12/04","14:50",0.0,12.5,54.7,1017.5,339.3,2.1,4.2,338.9,0.03,3.7,13.7,"14:42:08",1
"20/12/04","15:00",0.0,12.2,55.2,1017.5,336.0,2.6,4.5,342.2,0.02,3.5,13.7,"14:52:32",1
"20/12/04","15:10",0.0,12.1,55.6,1017.5,335.5,2.3,4.1,345.2,0.03,3.5,13.6,"15:00:16",1
"20/12/04","15:20",0.0,12.1,54.9,1017.5,331.9,3.4,5.2,338.9,0.07,3.4,13.5,"15:16:40",1
"20/12/04","15:30",0.0,11.9,55.1,1017.5,332.8,3.4,5.9,336.8,0.03,3.2,13.2,"15:28:48",1
"20/12/04","15:40",0.0,12.2,55.8,1017.5,331.2,2.8,4.9,341.9,0.06,3.7,13.2,"15:37:12",1
"20/12/04","15:50",0.0,12.1,55.6,1017.5,331.8,3.2,5.6,326.3,0.04,3.5,13.2,"15:48:00",1
"20/12/04","16:00",0.0,12.0,55.2,1017.5,330.7,3.5,5.6,320.4,0.04,3.3,13.2,"15:51:04",1
"20/12/04","16:10",0.0,11.7,55.6,1017.5,333.1,2.8,6.4,344.6,0.01,3.2,12.9,"16:06:16",1
"20/12/04","16:20",0.0,11.4,57.0,1017.8,334.2,2.6,5.7,333.6,0.00,3.2,12.7,"16:13:20",1
"20/12/04","16:30",0.0,11.0,59.2,1018.0,332.7,2.6,5.4,315.3,0.00,3.4,12.8,"16:28:42",1
"20/12/04","16:40",0.0,10.7,60.6,1017.8,330.1,2.8,5.0,344.1,0.00,3.4,12.6,"16:39:30",1
"20/12/04","16:50",0.0,10.3,62.1,1017.8,330.8,2.8,4.4,325.8,0.00,3.4,12.4,"16:43:44",1
"20/12/04","17:00",0.0,9.8,63.6,1018.0,333.2,2.8,4.0,335.3,0.00,3.3,12.3,"16:51:36",1
"20/12/04","17:10",0.0,9.5,64.9,1018.2,330.8,3.0,5.1,342.9,0.00,3.3,12.1,"17:05:44",1
"20/12/04","17:20",0.0,9.2,66.0,1017.8,330.7,3.0,4.1,333.6,0.00,3.2,12.2,"17:16:16",1
"20/12/04","17:30",0.0,9.1,66.7,1018.0,327.4,3.4,5.7,315.2,0.00,3.3,11.9,"17:26:16",1
"20/12/04","17:40",0.0,9.2,66.8,1018.0,320.4,3.7,5.7,325.3,0.00,3.4,12.0,"17:30:02",1
"20/12/04","17:50",0.0,9.1,67.0,1018.5,319.6,3.7,5.1,341.5,0.00,3.3,11.6,"17:40:08",1
"20/12/04","18:00",0.0,8.8,67.4,1018.5,306.0,1.8,4.9,325.8,0.00,3.1,11.8,"17:52:48",1
"20/12/04","18:10",0.0,8.2,68.8,1018.7,247.7,0.8,1.9,259.8,0.00,2.9,11.6,"18:09:36",1
"20/12/04","18:20",0.0,8.2,69.6,1019.0,269.5,1.8,2.9,294.8,0.00,3.0,11.5,"18:10:48",1
"20/12/04","18:30",0.0,8.3,69.5,1018.7,298.7,2.3,3.9,311.8,0.00,3.1,11.3,"18:24:32",1
"20/12/04","18:40",0.0,8.1,69.9,1018.5,320.6,2.5,3.6,314.1,0.00,3.0,11.2,"18:32:16",1
"20/12/04","18:50",0.0,7.7,70.8,1018.5,311.6,2.3,3.1,305.6,0.00,2.8,11.3,"18:43:20",1
"20/12/04","19:00",0.0,7.2,71.7,1018.7,285.3,1.7,2.4,308.4,0.00,2.5,11.1,"18:50:08",1
"20/12/04","19:10",0.0,7.2,73.1,1019.0,307.8,2.6,3.9,313.7,0.00,2.7,10.9,"19:07:36",1
"20/12/04","19:20",0.0,7.3,73.9,1019.2,307.2,2.2,3.4,318.5,0.00,3.0,11.1,"19:16:16",1
"20/12/04","19:30",0.0,7.7,74.4,1019.2,325.2,2.5,3.7,312.3,0.00,3.5,11.0,"19:21:28",1
"20/12/04","19:40",0.0,7.8,74.7,1019.2,327.9,2.6,4.0,334.8,0.00,3.6,10.9,"19:30:08",1
"20/12/04","19:50",0.0,7.7,75.1,1019.2,333.3,1.7,2.7,324.9,0.00,3.6,11.2,"19:42:24",1
"20/12/04","20:00",0.0,7.5,75.5,1019.2,337.1,1.7,3.3,325.9,0.00,3.5,10.9,"19:59:36",1
"20/12/04","20:10",0.0,7.3,75.8,1019.2,322.8,2.5,3.9,310.9,0.00,3.4,10.8,"20:06:00",1
"20/12/04","20:20",0.0,7.1,76.2,1019.2,306.8,2.0,3.1,320.1,0.00,3.2,10.8,"20:10:32",1
"20/12/04","20:30",0.0,7.1,76.7,1019.0,314.0,2.2,3.1,311.5,0.00,3.3,10.9,"20:26:24",1
"20/12/04","20:40",0.0,7.4,76.9,1019.2,325.7,2.5,3.5,325.9,0.00,3.7,10.8,"20:38:32",1
"20/12/04","20:50",0.0,7.5,77.2,1019.0,327.3,2.6,3.9,329.3,0.00,3.8,10.5,"20:40:08",1
"20/12/04","21:00",0.0,7.3,77.5,1019.2,327.9,2.3,3.5,335.6,0.00,3.7,10.6,"20:59:28",1
"20/12/04","21:10",0.0,7.1,78.0,1019.2,327.9,3.1,4.9,332.4,0.00,3.6,10.7,"21:04:16",1
"20/12/04","21:20",0.0,7.1,78.5,1019.0,327.3,3.2,5.4,321.8,0.00,3.7,10.6,"21:17:12",1
"20/12/04","21:30",0.0,7.1,78.8,1019.4,325.5,3.2,5.4,327.8,0.00,3.7,10.5,"21:24:24",1
"20/12/04","21:40",0.0,6.9,79.4,1019.4,329.3,3.0,4.2,327.8,0.00,3.6,10.6,"21:30:16",1
"20/12/04","21:50",0.0,6.7,79.9,1019.4,326.9,2.5,4.1,333.6,0.00,3.5,10.4,"21:45:20",1
"20/12/04","22:00",0.0,6.6,80.5,1019.7,330.3,2.1,3.5,326.3,0.00,3.5,10.5,"21:58:16",1
"20/12/04","22:10",0.0,6.4,81.1,1019.7,322.6,2.2,3.1,326.1,0.00,3.4,10.4,"22:09:28",1
"20/12/04","22:20",0.0,6.2,81.7,1019.4,326.8,2.2,2.9,338.2,0.00,3.3,10.2,"22:16:56",1
"20/12/04","22:30",0.0,5.9,82.2,1019.4,322.5,2.1,2.9,329.1,0.00,3.1,10.2,"22:25:44",1
"20/12/04","22:40",0.0,5.9,82.9,1019.4,332.7,1.7,2.6,324.1,0.00,3.3,10.2,"22:38:48",1
"20/12/04","22:50",0.0,5.9,83.4,1019.4,325.0,1.8,3.4,333.2,0.00,3.3,10.2,"22:40:24",1
"20/12/04","23:00",0.0,5.8,83.7,1019.2,332.2,2.0,3.4,335.0,0.00,3.3,10.2,"22:58:24",1
"20/12/04","23:10",0.0,5.6,84.0,1019.0,319.6,1.7,2.8,325.7,0.00,3.2,10.1,"23:01:04",1
"20/12/04","23:20",0.0,5.7,84.4,1019.2,325.2,2.2,3.9,331.7,0.00,3.3,10.0,"23:17:44",1
"20/12/04","23:30",0.0,5.9,84.6,1019.2,326.1,2.0,2.8,330.8,0.00,3.5,10.0,"23:27:04",1
"20/12/04","23:40",0.0,6.1,84.5,1019.0,325.3,2.2,4.2,335.3,0.00,3.7,10.1,"23:38:56",1
"20/12/04","23:50",0.0,6.0,84.2,1019.0,320.1,2.5,3.9,319.1,0.00,3.6,10.1,"23:45:52",1
"20/12/04","24:00",0.0,5.9,84.0,1019.4,325.3,2.2,3.1,342.7,0.00,3.4,10.1,"23:58:40",1
